Regional Weather Roundup
Issued by NWS

Home | Current Version | Previous Version | Text Only | Print | Product List | Glossary On
Versions: 1 2 3 4 5 6 7 8 9 10 11 12 13 14 15 16 17 18 19 20 21 22 23 24 25 26 27
000
ASUS42 KKEY 230710
RWRKEY

FLORIDA REGIONAL WEATHER ROUNDUP FOR THE FLORIDA KEYS
NATIONAL WEATHER SERVICE KEY WEST FLORIDA
300 AM EDT WED APR 23 2014

...SOUTH FLORIDA AND THE KEYS...

CITY           SKY/WX    TMP DP  RH WIND       PRES   REMARKS
FORT MYERS     PTCLDY    66  62  87 NW3       29.91S
SW REGIONAL AP CLEAR     65  61  87 CALM      29.91F
NAPLES         CLEAR     70  63  78 NW6       29.91F
MIAMI          CLOUDY    70  63  78 NW6       29.91S
WEST KENDALL   MOCLDY    66  64  93 W5        29.91F
HOMESTEAD      PTCLDY    68  62  81 NW8       29.90F
MARATHON       CLEAR     73  66  78 NW6       29.91F
BOCA CHICA NAS PTCLDY    72  65  78 NW7       29.92F
KEY WEST INTL  PTCLDY    73  66  78 NW7       29.92F

...INTERNATIONAL WEATHER...

CITY           SKY/WX    TMP DP  RH WIND       PRES   REMARKS
NASSAU BAHAMAS PTCLDY    72  64  78 CALM      29.90F
CANCUN MEXICO  CLEAR     64  64 100 CALM      29.93F
COZUMEL MEXICO PTCLDY    63  63 100 CALM      29.93F

ADJACENT COASTAL WATERS...

STATION/POSITION TIME  SKY/WX   TEMP    WIND        PRES    WAVE
                                AIR SEA DIR/SP/G            HT/PER
                 (UTC)          (F)     (DEG/KT/KT) (MB)    (FT/S)
PULASKI SHOAL LI NOT AVBL
SAND KEY         NOT AVBL
SOMBRERO KEY     0700            74     320/  8/ 10 1013.4F
LONG KEY         0700            74 79  330/  9/ 11 1013.3F
MOLASSES REEF    0700            74 78  330/ 10/ 12 1012.4F
FOWEY ROCKS      0700            72 77  290/ 12/ 14 1012.3F
Buoy 42080       NOT AVBL

$$



USA.gov is the U.S. government's official web portal to all federal, state and local government web resources and services.